1998-067PC (43554 NORAD) Tracking and Keplerian Element Data

This shows tracking and keplerian element data for the satellite.

Feedback or suggestion? Click here.




ElementValue
Catalog43554
Name1998-067PC
Epoch Orbit1887
Epoch Day318.52875381
Epoch Year2018
RAAN347.6473
Inclination51.6396
Eccentricity0.0007334
Argument of Perigee53.8964
Mean Anonmoly306.2706
Mean Motion15.57303793
Decay Rate8.743E-05
L11 43554U 98067PC 18318.52875381 .00008743 00000-0 12396-3 0 9997
L22 43554 51.6396 347.6473 0007334 53.8964 306.2706 15.57303793 18870

Live tracking and technical data element details for 1998-067PC (NORAD 43554). 1998-067PC can be tracked NOW for your location showing map with azimuth and elevation plus other details from your city location.

Track the satellite on the map from your city or location and see movement details for azimuth, elevation, latitude, longitude, range, height, and movement on the map or in text.







IsCatalogInMostPopularTable: catalog: 43554, numindb: 42
Update: records affected: 1



GetName: 43554 1998-067PC

Hit Count: updated at: Fri, 16 Nov 2018 03:27:15 GMT